Location: Bocchiglicro
(39.4167°N, 16.7500°E)
Time: 20:34:26
(UTC+00:00)

Cosmos 1892 - Pass Details

Date: 07 June 2020
Orbit: 504 x 524 km, 82.5° (Epoch: 11 July)

Event Time Altitude Azimuth Distance (km) Brightness Sun altitude
Exits shadow 01:22:06 49° 234° (SW) 663 2.8 -18.6°
Maximum altitude 01:22:46 59° 279° (W) 595 2.8 -18.5°
Drops below altitude 10° 01:26:31 10° 360° (N) 1,733 6.1 -18.1°
Sets 01:28:40 0° 4° (N) 2,621 7.2 -17.8°
